User: anonymous   Login
Location: Newark
(30.0333°N, 31.2167°E)
Time: 13:55:51
(UTC+00:00)
Language:

A-11 Canister half - Orbit

View from above orbital plane
View from above orbital plane
View from above satellite
View from above satellite

Ground track
Ground track

The orbit data is extracted from the following two-line orbital elements,

1    53U 60009E   20028.87347093 -.00000027 +00000-0 +57715-3 0  9994
2    53 047.2782 332.5139 0099516 024.8983 335.6562 12.17238055651444
Epoch (UTC): 28 January 2020 20:57:47
Eccentricity: 0.0099516
inclination: 47.2782°
perigee height: 1525 km
apogee height: 1684 km
right ascension of ascending node: 332.5139°
argument of perigee: 24.8983°
revolutions per day: 12.17238055
mean anomaly at epoch: 335.6562°
orbit number at epoch: 65144

The dashed part of the orbit path shows where the satellite is in the earth's shadow,  

DLR